BAW9 LGAV-LFPG

Flight info

Callsign BAW9
Flight time 1h 41m
Altitude 50000
Route DCT KOR UL53 OLGAT DCT BOA DCT DJL DCT
Aircraft CONC/H-SDE2E3FGHIRYW/X

Departure

Time 2026-05-08 19:12
Airport Athens Eleftherios Venizelos International Airport (LGAV)

Arrival

Time 2026-05-08 20:53
Airport Charles de Gaulle International Airport (LFPG)
Time Latitude Longitude Altitude Speed Heading
2026-05-08 18:46 37.93331 23.94574 307 ft 0 kts 306°
2026-05-08 18:58 37.93325 23.94584 310 ft 4 kts 308°
2026-05-08 18:58 37.93307 23.94608 309 ft 4 kts 323°
2026-05-08 18:58 37.93287 23.94622 309 ft 2 kts 342°
2026-05-08 18:59 37.93264 23.94627 309 ft 4 kts 12°
2026-05-08 18:59 37.93241 23.94615 309 ft 3 kts 37°
2026-05-08 18:59 37.93239 23.94613 309 ft 3 kts 37°
2026-05-08 19:02 37.93245 23.94619 292 ft 4 kts 37°
2026-05-08 19:02 37.93295 23.94668 308 ft 15 kts 37°
2026-05-08 19:02 37.93385 23.94754 309 ft 15 kts 37°
2026-05-08 19:02 37.93437 23.94815 309 ft 3 kts 68°
2026-05-08 19:03 37.93435 23.94875 308 ft 14 kts 94°
2026-05-08 19:03 37.93497 23.94993 307 ft 19 kts 38°
2026-05-08 19:03 37.93613 23.95102 307 ft 23 kts 36°
2026-05-08 19:03 37.93660 23.95274 306 ft 22 kts 68°
2026-05-08 19:04 37.93789 23.95412 307 ft 27 kts 37°
2026-05-08 19:04 37.93947 23.95564 305 ft 30 kts 38°
2026-05-08 19:04 37.94119 23.95726 303 ft 32 kts 37°
2026-05-08 19:04 37.94300 23.95898 306 ft 33 kts 37°
2026-05-08 19:05 37.94481 23.96068 306 ft 27 kts 36°
2026-05-08 19:05 37.94572 23.96156 307 ft 10 kts 37°
2026-05-08 19:05 37.94613 23.96195 306 ft 4 kts 37°
2026-05-08 19:05 37.94631 23.96212 306 ft 4 kts 37°
2026-05-08 19:06 37.94663 23.96242 306 ft 7 kts 36°
2026-05-08 19:06 37.94710 23.96285 306 ft 10 kts 36°
2026-05-08 19:06 37.94782 23.96354 307 ft 16 kts 37°
2026-05-08 19:06 37.94884 23.96451 307 ft 21 kts 37°
2026-05-08 19:07 37.94985 23.96546 310 ft 14 kts 37°
2026-05-08 19:07 37.95056 23.96614 310 ft 11 kts 37°
2026-05-08 19:07 37.95098 23.96653 309 ft 10 kts 36°
2026-05-08 19:07 37.95153 23.96706 309 ft 8 kts 37°
2026-05-08 19:08 37.95180 23.96731 309 ft 8 kts 37°
2026-05-08 19:08 37.95212 23.96762 311 ft 7 kts 37°
2026-05-08 19:08 37.95241 23.96789 310 ft 2 kts 37°
2026-05-08 19:08 37.95290 23.96836 310 ft 10 kts 36°
2026-05-08 19:09 37.95365 23.96906 309 ft 15 kts 36°
2026-05-08 19:09 37.95397 23.96970 309 ft 11 kts 81°
2026-05-08 19:09 37.95377 23.97013 310 ft 2 kts 135°
2026-05-08 19:09 37.95367 23.97019 311 ft 1 kts 149°
2026-05-08 19:10 37.95364 23.97020 311 ft 0 kts 153°
2026-05-08 19:11 37.95355 23.97024 312 ft 6 kts 158°
2026-05-08 19:11 37.95284 23.97032 315 ft 21 kts 176°
2026-05-08 19:11 37.95048 23.96888 315 ft 70 kts 217°
2026-05-08 19:11 37.94360 23.96235 298 ft 177 kts 217°
2026-05-08 19:12 37.93119 23.95067 500 ft 254 kts 216°
2026-05-08 19:12 37.91591 23.93758 1959 ft 296 kts 210°
2026-05-08 19:12 37.89571 23.92608 3491 ft 337 kts 197°
2026-05-08 19:12 37.87422 23.92353 4907 ft 294 kts 187°
2026-05-08 19:13 37.85395 23.91825 6355 ft 301 kts 206°
2026-05-08 19:13 37.83558 23.90517 7365 ft 316 kts 217°
2026-05-08 19:13 37.81714 23.88901 7125 ft 320 kts 217°
2026-05-08 19:13 37.79947 23.87228 7035 ft 316 kts 223°
2026-05-08 19:14 37.78188 23.85548 7027 ft 318 kts 215°
2026-05-08 19:14 37.76316 23.84106 7332 ft 311 kts 213°
2026-05-08 19:14 37.74429 23.82736 8049 ft 316 kts 213°
2026-05-08 19:14 37.72526 23.81384 8765 ft 320 kts 213°
2026-05-08 19:15 37.70573 23.80013 9497 ft 322 kts 213°
2026-05-08 19:15 37.68606 23.78642 10245 ft 324 kts 214°
2026-05-08 19:15 37.66598 23.77240 10970 ft 341 kts 214°
2026-05-08 19:15 37.64437 23.75719 11699 ft 371 kts 213°
2026-05-08 19:16 37.62103 23.74082 12589 ft 395 kts 213°
2026-05-08 19:16 37.59629 23.72349 13539 ft 418 kts 216°
2026-05-08 19:16 37.57406 23.69942 14344 ft 430 kts 237°
2026-05-08 19:16 37.56058 23.66547 15200 ft 443 kts 257°
2026-05-08 19:17 37.55495 23.62682 16173 ft 450 kts 262°
2026-05-08 19:17 37.54981 23.58792 17302 ft 453 kts 259°
2026-05-08 19:17 37.54225 23.54959 18463 ft 461 kts 256°
2026-05-08 19:17 37.53326 23.51049 19511 ft 468 kts 256°
2026-05-08 19:18 37.52475 23.47071 20609 ft 473 kts 257°
2026-05-08 19:18 37.51644 23.43038 21732 ft 478 kts 257°
2026-05-08 19:18 37.50819 23.38976 22902 ft 480 kts 258°
2026-05-08 19:18 37.49991 23.34889 24019 ft 483 kts 258°
2026-05-08 19:19 37.49247 23.30761 25028 ft 483 kts 266°
2026-05-08 19:19 37.49418 23.26554 25998 ft 486 kts 284°
2026-05-08 19:19 37.50724 23.22686 26976 ft 494 kts 302°
2026-05-08 19:19 37.52908 23.19308 28083 ft 502 kts 312°
2026-05-08 19:20 37.55658 23.16545 29243 ft 513 kts 326°
2026-05-08 19:20 37.57840 23.15190 30001 ft 521 kts 332°
2026-05-08 19:20 37.62292 23.12866 31311 ft 523 kts 331°
2026-05-08 19:20 37.65581 23.10909 32332 ft 521 kts 328°
2026-05-08 19:21 37.68791 23.08798 33380 ft 520 kts 328°
2026-05-08 19:21 37.72021 23.06753 34450 ft 518 kts 329°
2026-05-08 19:21 37.75253 23.04761 35452 ft 516 kts 329°
2026-05-08 19:21 37.78500 23.02776 36145 ft 523 kts 329°
2026-05-08 19:22 37.81768 23.00778 36122 ft 535 kts 329°
2026-05-08 19:22 37.85194 22.98669 36082 ft 563 kts 329°
2026-05-08 19:22 37.88794 22.96411 36026 ft 592 kts 329°
2026-05-08 19:22 37.92456 22.93819 35966 ft 613 kts 319°
2026-05-08 19:23 37.95590 22.90073 36002 ft 629 kts 304°
2026-05-08 19:23 37.97946 22.85373 36891 ft 637 kts 297°
2026-05-08 19:23 38.00202 22.80469 38021 ft 651 kts 300°
2026-05-08 19:23 38.02733 22.75622 39120 ft 667 kts 303°
2026-05-08 19:24 38.05493 22.70819 40136 ft 680 kts 304°
2026-05-08 19:24 38.08282 22.65903 41196 ft 691 kts 303°
2026-05-08 19:24 38.11040 22.60956 42298 ft 700 kts 303°
2026-05-08 19:24 38.13856 22.55864 43479 ft 708 kts 303°
2026-05-08 19:25 38.16691 22.50720 44718 ft 713 kts 303°
2026-05-08 19:25 38.19522 22.45535 45808 ft 716 kts 302°
2026-05-08 19:25 38.22342 22.40302 46890 ft 717 kts 303°
2026-05-08 19:25 38.25176 22.35081 47963 ft 718 kts 303°
2026-05-08 19:26 38.28019 22.29861 49035 ft 717 kts 303°
2026-05-08 19:26 38.30848 22.24650 50143 ft 714 kts 302°
2026-05-08 19:26 38.33639 22.19449 51218 ft 709 kts 303°
2026-05-08 19:26 38.36389 22.14351 52005 ft 709 kts 303°
2026-05-08 19:27 38.39195 22.09163 52433 ft 712 kts 303°
2026-05-08 19:27 38.42003 22.03939 52816 ft 717 kts 303°
2026-05-08 19:27 38.44826 21.98666 53142 ft 723 kts 303°
2026-05-08 19:27 38.47679 21.93355 53414 ft 728 kts 303°
2026-05-08 19:28 38.50545 21.88008 53672 ft 733 kts 302°
2026-05-08 19:28 38.53424 21.82598 53944 ft 738 kts 303°
2026-05-08 19:28 38.56328 21.77159 54199 ft 743 kts 303°
2026-05-08 19:28 38.59212 21.71759 54466 ft 748 kts 303°
2026-05-08 19:29 38.62138 21.66239 54722 ft 753 kts 302°
2026-05-08 19:29 38.65082 21.60688 54912 ft 755 kts 303°
2026-05-08 19:29 38.68045 21.55111 55052 ft 761 kts 303°
2026-05-08 19:29 38.71023 21.49471 55196 ft 768 kts 302°
2026-05-08 19:30 38.74025 21.43774 55225 ft 776 kts 303°
2026-05-08 19:30 38.80143 21.32176 55255 ft 795 kts 302°
2026-05-08 19:30 38.83204 21.26331 55257 ft 806 kts 303°
2026-05-08 19:31 38.86352 21.20333 55260 ft 817 kts 303°
2026-05-08 19:31 38.89546 21.14240 55247 ft 829 kts 302°
2026-05-08 19:31 38.92779 21.08039 55244 ft 842 kts 302°
2026-05-08 19:31 38.96067 21.01736 55241 ft 856 kts 302°
2026-05-08 19:32 38.99408 20.95325 55267 ft 871 kts 302°
2026-05-08 19:32 39.02795 20.88788 55262 ft 887 kts 302°
2026-05-08 19:32 39.06244 20.82131 55261 ft 903 kts 302°
2026-05-08 19:32 39.09761 20.75346 55260 ft 920 kts 302°
2026-05-08 19:33 39.13287 20.68506 55242 ft 938 kts 302°
2026-05-08 19:33 39.16920 20.61445 55237 ft 955 kts 302°
2026-05-08 19:33 39.20631 20.54235 55230 ft 973 kts 302°
2026-05-08 19:33 39.24389 20.46899 55215 ft 990 kts 302°
2026-05-08 19:34 39.28211 20.39421 55205 ft 1006 kts 302°
2026-05-08 19:34 39.32095 20.31819 55212 ft 1022 kts 302°
2026-05-08 19:34 39.36031 20.24076 55212 ft 1038 kts 302°
2026-05-08 19:34 39.40017 20.16224 55185 ft 1051 kts 302°
2026-05-08 19:35 39.44076 20.08349 55320 ft 1053 kts 304°
2026-05-08 19:35 39.48599 20.01025 55617 ft 1061 kts 312°
2026-05-08 19:35 39.53832 19.94245 55967 ft 1067 kts 315°
2026-05-08 19:35 39.59240 19.87623 56451 ft 1072 kts 314°
2026-05-08 19:36 39.64571 19.80821 56985 ft 1079 kts 313°
2026-05-08 19:36 39.69876 19.73892 57509 ft 1085 kts 313°
2026-05-08 19:36 39.75137 19.66824 57998 ft 1091 kts 312°
2026-05-08 19:36 39.80417 19.59717 58521 ft 1096 kts 312°
2026-05-08 19:37 39.85747 19.52582 59056 ft 1101 kts 313°
2026-05-08 19:37 39.91100 19.45424 59603 ft 1106 kts 313°
2026-05-08 19:37 39.96401 19.38329 60046 ft 1111 kts 313°
2026-05-08 19:38 40.07244 19.23757 60008 ft 1127 kts 312°
2026-05-08 19:38 40.18057 19.09078 59961 ft 1109 kts 312°
2026-05-08 19:39 40.27649 18.93469 59678 ft 1101 kts 298°
2026-05-08 19:39 40.34204 18.75522 59764 ft 1101 kts 294°
2026-05-08 19:40 40.40915 18.57435 59906 ft 1104 kts 296°
2026-05-08 19:40 40.47981 18.39510 59904 ft 1108 kts 296°
2026-05-08 19:41 40.54984 18.21452 59957 ft 1110 kts 296°
2026-05-08 19:41 40.61958 18.03309 59927 ft 1112 kts 296°
2026-05-08 19:42 40.68864 17.85221 59931 ft 1114 kts 296°
2026-05-08 19:42 40.75800 17.66941 59915 ft 1115 kts 295°
2026-05-08 19:43 40.82715 17.48603 59938 ft 1117 kts 295°
2026-05-08 19:43 40.89612 17.30198 59998 ft 1118 kts 295°
2026-05-08 19:44 40.96441 17.11855 59936 ft 1120 kts 295°
2026-05-08 19:44 41.03247 16.93311 59957 ft 1120 kts 295°
2026-05-08 19:45 41.10055 16.74742 60003 ft 1121 kts 295°
2026-05-08 19:45 41.18084 16.57042 59707 ft 1127 kts 309°
2026-05-08 19:45 41.23470 16.49457 59562 ft 1131 kts 317°
2026-05-08 19:46 41.29571 16.43072 59536 ft 1135 kts 326°
2026-05-08 19:46 41.50314 16.27776 59969 ft 1135 kts 330°
2026-05-08 19:47 41.64351 16.18103 59967 ft 1136 kts 331°
2026-05-08 19:47 41.78400 16.08426 59963 ft 1136 kts 331°
2026-05-08 19:48 41.92357 15.98773 60019 ft 1136 kts 331°
2026-05-08 19:48 42.06132 15.88455 59912 ft 1132 kts 325°
2026-05-08 19:49 42.18549 15.75514 59787 ft 1126 kts 313°
2026-05-08 19:49 42.23773 15.67679 59654 ft 1123 kts 305°
2026-05-08 19:49 42.28313 15.59131 59726 ft 1120 kts 303°
2026-05-08 19:50 42.32757 15.50498 59884 ft 1119 kts 304°
2026-05-08 19:50 42.37354 15.42014 59937 ft 1118 kts 305°
2026-05-08 19:50 42.46683 15.25356 59980 ft 1118 kts 306°
2026-05-08 19:51 42.56086 15.08581 59966 ft 1117 kts 306°
2026-05-08 19:51 42.65445 14.91750 60011 ft 1116 kts 306°
2026-05-08 19:52 42.74768 14.74883 59970 ft 1116 kts 306°
2026-05-08 19:52 42.84006 14.58073 59975 ft 1115 kts 305°
2026-05-08 19:53 42.93272 14.41116 60014 ft 1115 kts 305°
2026-05-08 19:53 43.02511 14.24112 59980 ft 1115 kts 305°
2026-05-08 19:54 43.11727 14.07050 59987 ft 1115 kts 305°
2026-05-08 19:54 43.20870 13.89900 60003 ft 1115 kts 304°
2026-05-08 19:55 43.29954 13.72839 59987 ft 1114 kts 304°
2026-05-08 19:55 43.39041 13.55603 59987 ft 1114 kts 304°
2026-05-08 19:56 43.48124 13.38326 59998 ft 1113 kts 304°
2026-05-08 19:56 43.57159 13.21008 59978 ft 1113 kts 304°
2026-05-08 19:57 43.66107 13.03749 59994 ft 1112 kts 304°
2026-05-08 19:57 43.75097 12.86350 59982 ft 1112 kts 304°
2026-05-08 19:58 43.84038 12.68878 59989 ft 1112 kts 304°
2026-05-08 19:58 43.92975 12.51367 60015 ft 1113 kts 303°
2026-05-08 19:59 44.01877 12.33787 59987 ft 1113 kts 304°
2026-05-08 19:59 44.10683 12.16286 59966 ft 1113 kts 303°
2026-05-08 20:00 44.19548 11.98605 59989 ft 1113 kts 303°
2026-05-08 20:00 44.28362 11.80862 59992 ft 1113 kts 303°
2026-05-08 20:01 44.37169 11.63083 60018 ft 1113 kts 303°
2026-05-08 20:01 44.45935 11.45232 60033 ft 1113 kts 303°
2026-05-08 20:02 44.54610 11.27462 60010 ft 1113 kts 303°
2026-05-08 20:02 44.63333 11.09515 60040 ft 1112 kts 303°
2026-05-08 20:03 44.72003 10.91530 60033 ft 1112 kts 303°
2026-05-08 20:03 44.80691 10.73531 60018 ft 1111 kts 303°
2026-05-08 20:04 44.89306 10.55655 60010 ft 1110 kts 303°
2026-05-08 20:04 44.97955 10.37602 59986 ft 1109 kts 302°
2026-05-08 20:05 45.06552 10.19499 59964 ft 1109 kts 302°
2026-05-08 20:05 45.15134 10.01363 59959 ft 1109 kts 302°
2026-05-08 20:06 45.23641 9.83142 59948 ft 1108 kts 302°
2026-05-08 20:06 45.32094 9.65004 59983 ft 1108 kts 302°
2026-05-08 20:07 45.40546 9.46673 60007 ft 1108 kts 302°
2026-05-08 20:07 45.48987 9.28304 60015 ft 1108 kts 302°
2026-05-08 20:08 45.57387 9.09873 59986 ft 1108 kts 302°
2026-05-08 20:08 45.65756 8.91384 60005 ft 1108 kts 302°
2026-05-08 20:09 45.74115 8.72845 59996 ft 1109 kts 301°
2026-05-08 20:09 45.82159 8.54171 59990 ft 1108 kts 297°
2026-05-08 20:10 45.88596 8.34122 59874 ft 1108 kts 295°
2026-05-08 20:10 45.96286 8.14922 59891 ft 1110 kts 301°
2026-05-08 20:11 46.00466 8.05587 59998 ft 1110 kts 302°
2026-05-08 20:11 46.04688 7.96278 60028 ft 1110 kts 302°
2026-05-08 20:11 46.13147 7.77677 60006 ft 1110 kts 302°
2026-05-08 20:12 46.21529 7.59144 60024 ft 1111 kts 302°
2026-05-08 20:12 46.29937 7.40398 59995 ft 1111 kts 302°
2026-05-08 20:13 46.38303 7.21584 59997 ft 1112 kts 301°
2026-05-08 20:13 46.46632 7.02677 59994 ft 1113 kts 301°
2026-05-08 20:14 46.54865 6.83816 59990 ft 1114 kts 301°
2026-05-08 20:14 46.63101 6.64766 59964 ft 1109 kts 301°
2026-05-08 20:15 46.67167 6.55295 59959 ft 1096 kts 301°
2026-05-08 20:15 46.71181 6.45903 59955 ft 1091 kts 301°
2026-05-08 20:15 46.75171 6.36517 59275 ft 1083 kts 301°
2026-05-08 20:15 46.79104 6.27226 57834 ft 1070 kts 301°
2026-05-08 20:16 46.82972 6.18024 56279 ft 1056 kts 299°
2026-05-08 20:16 46.86647 6.08981 54688 ft 1042 kts 302°
2026-05-08 20:16 46.90537 6.00132 53081 ft 1028 kts 302°
2026-05-08 20:16 46.94315 5.91351 51508 ft 1011 kts 301°
2026-05-08 20:17 46.97979 5.82663 49939 ft 994 kts 301°
2026-05-08 20:17 47.01555 5.74105 48387 ft 978 kts 300°
2026-05-08 20:17 47.05246 5.65789 46759 ft 972 kts 307°
2026-05-08 20:17 47.09547 5.58167 45062 ft 966 kts 310°
2026-05-08 20:18 47.14017 5.50870 43429 ft 956 kts 311°
2026-05-08 20:18 47.18484 5.43777 42995 ft 931 kts 312°
2026-05-08 20:18 47.22817 5.36987 42480 ft 890 kts 312°
2026-05-08 20:18 47.26984 5.30497 41286 ft 856 kts 312°
2026-05-08 20:19 47.30937 5.24339 40100 ft 821 kts 312°
2026-05-08 20:19 47.34771 5.18361 39051 ft 783 kts 312°
2026-05-08 20:19 47.38413 5.12676 37988 ft 743 kts 312°
2026-05-08 20:19 47.41867 5.07281 36890 ft 703 kts 311°
2026-05-08 20:20 47.45146 5.02157 35856 ft 665 kts 311°
2026-05-08 20:20 47.48233 4.97329 34858 ft 628 kts 311°
2026-05-08 20:20 47.51149 4.92765 33827 ft 593 kts 311°
2026-05-08 20:20 47.53868 4.88503 32661 ft 563 kts 311°
2026-05-08 20:21 47.56479 4.84403 31519 ft 532 kts 312°
2026-05-08 20:21 47.58967 4.80488 30441 ft 513 kts 312°
2026-05-08 20:21 47.61372 4.76696 29235 ft 498 kts 312°
2026-05-08 20:21 47.63714 4.73001 27890 ft 487 kts 312°
2026-05-08 20:22 47.66015 4.69372 26587 ft 479 kts 313°
2026-05-08 20:22 47.68459 4.66061 25330 ft 473 kts 319°
2026-05-08 20:22 47.71015 4.63031 24160 ft 467 kts 321°
2026-05-08 20:22 47.72712 4.61087 23334 ft 464 kts 321°
2026-05-08 20:23 47.76132 4.57234 21533 ft 458 kts 321°
2026-05-08 20:23 47.78669 4.54404 20237 ft 454 kts 321°
2026-05-08 20:23 47.81190 4.51599 19026 ft 451 kts 321°
2026-05-08 20:23 47.83661 4.48851 17784 ft 448 kts 320°
2026-05-08 20:24 47.86142 4.46083 16647 ft 442 kts 321°
2026-05-08 20:24 47.88574 4.43364 15674 ft 433 kts 321°
2026-05-08 20:24 47.90937 4.40719 15153 ft 416 kts 321°
2026-05-08 20:24 47.93200 4.38187 14900 ft 395 kts 321°
2026-05-08 20:25 47.95324 4.35812 14923 ft 370 kts 321°
2026-05-08 20:25 47.97369 4.33523 14948 ft 369 kts 321°
2026-05-08 20:25 47.99423 4.31217 14952 ft 369 kts 321°
2026-05-08 20:25 48.01468 4.28919 14956 ft 368 kts 321°
2026-05-08 20:26 48.03512 4.26617 14957 ft 368 kts 321°
2026-05-08 20:26 48.05530 4.24341 14967 ft 368 kts 321°
2026-05-08 20:26 48.07570 4.22041 14971 ft 367 kts 321°
2026-05-08 20:26 48.09602 4.19745 14966 ft 367 kts 321°
2026-05-08 20:27 48.11639 4.17440 14963 ft 367 kts 321°
2026-05-08 20:27 48.13675 4.15134 14962 ft 367 kts 321°
2026-05-08 20:27 48.15706 4.12831 14963 ft 366 kts 321°
2026-05-08 20:27 48.17742 4.10518 14964 ft 368 kts 321°
2026-05-08 20:28 48.19776 4.08204 14964 ft 367 kts 321°
2026-05-08 20:28 48.21807 4.05893 14962 ft 367 kts 321°
2026-05-08 20:28 48.23842 4.03575 14961 ft 367 kts 321°
2026-05-08 20:28 48.25874 4.01258 14962 ft 367 kts 321°
2026-05-08 20:29 48.27879 3.98969 14962 ft 367 kts 321°
2026-05-08 20:29 48.29907 3.96652 14961 ft 366 kts 321°
2026-05-08 20:29 48.31935 3.94333 14965 ft 367 kts 321°
2026-05-08 20:29 48.33964 3.92010 14965 ft 367 kts 321°
2026-05-08 20:30 48.35995 3.89683 14963 ft 367 kts 320°
2026-05-08 20:30 48.38020 3.87359 14974 ft 366 kts 321°
2026-05-08 20:30 48.40047 3.85031 14971 ft 367 kts 321°
2026-05-08 20:30 48.42073 3.82701 14970 ft 367 kts 321°
2026-05-08 20:31 48.44099 3.80369 14969 ft 366 kts 321°
2026-05-08 20:31 48.46124 3.78038 14969 ft 366 kts 321°
2026-05-08 20:31 48.48148 3.75705 14968 ft 366 kts 321°
2026-05-08 20:31 48.50145 3.73401 14968 ft 366 kts 321°
2026-05-08 20:32 48.52169 3.71063 14972 ft 366 kts 321°
2026-05-08 20:32 48.54191 3.68727 14969 ft 366 kts 321°
2026-05-08 20:32 48.56212 3.66389 14971 ft 366 kts 321°
2026-05-08 20:32 48.58166 3.63938 14960 ft 365 kts 311°
2026-05-08 20:33 48.59826 3.61049 14975 ft 364 kts 307°
2026-05-08 20:33 48.61406 3.58042 14977 ft 366 kts 306°
2026-05-08 20:33 48.62962 3.55002 14980 ft 365 kts 306°
2026-05-08 20:33 48.64504 3.51954 14979 ft 365 kts 306°
2026-05-08 20:34 48.66044 3.48896 14974 ft 365 kts 306°
2026-05-08 20:34 48.67581 3.45839 14979 ft 365 kts 306°
2026-05-08 20:34 48.70639 3.39745 14982 ft 366 kts 306°
2026-05-08 20:35 48.72175 3.36682 14981 ft 365 kts 306°
2026-05-08 20:35 48.73721 3.33597 14618 ft 370 kts 306°
2026-05-08 20:35 48.75272 3.30499 13997 ft 368 kts 306°
2026-05-08 20:35 48.76813 3.27423 13333 ft 364 kts 306°
2026-05-08 20:36 48.78333 3.24390 12889 ft 355 kts 306°
2026-05-08 20:36 48.79817 3.21429 12951 ft 354 kts 306°
2026-05-08 20:36 48.81311 3.18443 12972 ft 355 kts 306°
2026-05-08 20:36 48.82799 3.15466 12988 ft 354 kts 306°
2026-05-08 20:37 48.84289 3.12482 12979 ft 356 kts 306°
2026-05-08 20:37 48.85784 3.09489 12979 ft 355 kts 306°
2026-05-08 20:37 48.87253 3.06545 12988 ft 355 kts 306°
2026-05-08 20:37 48.88744 3.03554 12988 ft 356 kts 306°
2026-05-08 20:38 48.90237 3.00557 12984 ft 355 kts 306°
2026-05-08 20:38 48.91727 2.97565 12984 ft 355 kts 306°
2026-05-08 20:38 48.93218 2.94570 12985 ft 356 kts 306°
2026-05-08 20:38 48.94714 2.91563 12984 ft 356 kts 306°
2026-05-08 20:39 48.96203 2.88562 12986 ft 355 kts 304°
2026-05-08 20:39 48.97241 2.85201 12942 ft 353 kts 278°
2026-05-08 20:39 48.97290 2.81488 12959 ft 351 kts 264°
2026-05-08 20:39 48.97036 2.77798 12988 ft 351 kts 262°
2026-05-08 20:40 48.96726 2.74157 12997 ft 352 kts 262°
2026-05-08 20:40 48.96389 2.70469 13000 ft 351 kts 261°
2026-05-08 20:40 48.96042 2.66787 13001 ft 351 kts 261°
2026-05-08 20:40 48.95692 2.63105 13000 ft 352 kts 261°
2026-05-08 20:41 48.95341 2.59418 12994 ft 350 kts 261°
2026-05-08 20:41 48.94939 2.55808 12165 ft 351 kts 258°
2026-05-08 20:41 48.94437 2.52209 11846 ft 339 kts 257°
2026-05-08 20:41 48.93932 2.48812 11835 ft 320 kts 257°
2026-05-08 20:42 48.93440 2.45583 11712 ft 307 kts 256°
2026-05-08 20:42 48.92961 2.42477 11551 ft 297 kts 256°
2026-05-08 20:42 48.92497 2.39476 11387 ft 287 kts 256°
2026-05-08 20:42 48.92040 2.36531 11005 ft 286 kts 256°
2026-05-08 20:43 48.91585 2.33596 10663 ft 284 kts 256°
2026-05-08 20:43 48.91139 2.30721 10337 ft 282 kts 256°
2026-05-08 20:43 48.90690 2.27831 10003 ft 280 kts 256°
2026-05-08 20:43 48.90242 2.24950 9597 ft 280 kts 256°
2026-05-08 20:44 48.89800 2.22093 9179 ft 277 kts 256°
2026-05-08 20:44 48.89365 2.19282 9026 ft 266 kts 256°
2026-05-08 20:44 48.88953 2.16626 8994 ft 250 kts 256°
2026-05-08 20:44 48.88567 2.14142 8812 ft 237 kts 256°
2026-05-08 20:45 48.88188 2.11703 8303 ft 237 kts 256°
2026-05-08 20:45 48.87938 2.10089 8006 ft 236 kts 256°
2026-05-08 20:45 48.87454 2.06967 7910 ft 221 kts 256°
2026-05-08 20:45 48.87169 2.04583 7951 ft 236 kts 275°
2026-05-08 20:46 48.87711 2.02303 7587 ft 236 kts 311°
2026-05-08 20:46 48.89141 2.00975 6841 ft 251 kts 353°
2026-05-08 20:46 48.90768 2.01337 6620 ft 235 kts 29°
2026-05-08 20:46 48.91974 2.03114 5782 ft 248 kts 60°
2026-05-08 20:47 48.92803 2.05279 5970 ft 237 kts 62°
2026-05-08 20:47 48.93597 2.07490 6013 ft 237 kts 63°
2026-05-08 20:47 48.94371 2.09708 5997 ft 233 kts 64°
2026-05-08 20:47 48.95121 2.11917 5198 ft 244 kts 65°
2026-05-08 20:48 48.95863 2.14180 4988 ft 227 kts 66°
2026-05-08 20:48 48.96518 2.16230 4976 ft 216 kts 66°
2026-05-08 20:48 48.96957 2.18409 4999 ft 215 kts 84°
2026-05-08 20:48 48.97137 2.20679 4994 ft 217 kts 84°
2026-05-08 20:49 48.97339 2.22975 4718 ft 219 kts 83°
2026-05-08 20:49 48.97551 2.25240 4394 ft 213 kts 84°
2026-05-08 20:49 48.97728 2.27442 4089 ft 206 kts 84°
2026-05-08 20:49 48.97872 2.29572 3815 ft 199 kts 85°
2026-05-08 20:50 48.97990 2.31631 3542 ft 192 kts 86°
2026-05-08 20:50 48.98091 2.33652 3301 ft 191 kts 86°
2026-05-08 20:50 48.98183 2.35624 3052 ft 183 kts 86°
2026-05-08 20:50 48.98274 2.37531 2807 ft 183 kts 85°
2026-05-08 20:51 48.98370 2.39464 2569 ft 183 kts 85°
2026-05-08 20:51 48.98468 2.41380 2334 ft 181 kts 85°
2026-05-08 20:51 48.98571 2.43271 2089 ft 178 kts 85°
2026-05-08 20:51 48.98674 2.45133 1858 ft 175 kts 85°
2026-05-08 20:52 48.98774 2.46969 1639 ft 174 kts 85°
2026-05-08 20:52 48.98877 2.48812 1382 ft 175 kts 85°
2026-05-08 20:52 48.98965 2.50660 1114 ft 177 kts 85°
2026-05-08 20:52 48.99060 2.52553 892 ft 181 kts 83°
2026-05-08 20:53 48.99177 2.54424 621 ft 179 kts 84°
2026-05-08 20:53 48.99270 2.56315 405 ft 177 kts 84°
2026-05-08 20:53 48.99382 2.58061 363 ft 143 kts 82°
2026-05-08 20:53 48.99416 2.58878 363 ft 47 kts 85°
2026-05-08 20:54 48.99479 2.59290 364 ft 35 kts 64°
2026-05-08 20:54 48.99568 2.59587 365 ft 23 kts 65°
2026-05-08 20:54 48.99622 2.59677 368 ft 13 kts 25°
2026-05-08 20:54 48.99738 2.59682 366 ft 21 kts 355°
2026-05-08 20:55 48.99905 2.59661 367 ft 19 kts 355°
2026-05-08 20:55 48.99922 2.59659 368 ft 0 kts 355°
2026-05-08 20:55 48.99930 2.59658 367 ft 6 kts 355°
2026-05-08 20:55 48.99939 2.59657 366 ft 0 kts 355°
2026-05-08 20:56 48.99970 2.59653 362 ft 11 kts 355°
2026-05-08 20:56 49.00040 2.59640 366 ft 13 kts 342°
2026-05-08 20:56 49.00072 2.59465 366 ft 25 kts 268°
2026-05-08 20:56 49.00059 2.59186 367 ft 28 kts 266°
2026-05-08 20:57 49.00041 2.58856 361 ft 35 kts 265°
2026-05-08 20:57 49.00019 2.58454 366 ft 41 kts 266°
2026-05-08 20:57 48.99997 2.58027 361 ft 39 kts 265°
2026-05-08 20:57 48.99974 2.57600 365 ft 42 kts 265°
2026-05-08 20:58 48.99951 2.57184 365 ft 23 kts 265°
2026-05-08 20:58 48.99946 2.57038 367 ft 12 kts 280°
2026-05-08 20:58 48.99959 2.57019 363 ft 0 kts 314°
2026-05-08 20:59 48.99959 2.57018 363 ft 1 kts 314°
2026-05-08 20:59 48.99978 2.57008 366 ft 4 kts 344°
2026-05-08 20:59 49.00017 2.57002 366 ft 3 kts 353°
2026-05-08 20:59 49.00043 2.56994 363 ft 8 kts 348°
2026-05-08 21:00 49.00071 2.56987 361 ft 0 kts 350°
2026-05-08 21:00 49.00074 2.56986 361 ft 0 kts 350°
2026-05-08 21:01 49.00080 2.56984 366 ft 2 kts 351°
2026-05-08 21:01 49.00107 2.56974 367 ft 6 kts 343°
2026-05-08 21:01 49.00148 2.56950 366 ft 5 kts 338°
2026-05-08 21:01 49.00173 2.56934 369 ft 2 kts 335°
2026-05-08 21:02 49.00204 2.56914 366 ft 5 kts 337°
2026-05-08 21:02 49.00209 2.56911 365 ft 0 kts 337°